Flag for U.S.A. Weather past 2 weeks in Simi Valley, California, U.S.A.

Now
77 °F

Sunny.


Feels Like: 77 °F
Forecast: 53 / 82 °F
Wind: 8 mph from Southeast

Location: Van Nuys Airport

Current Time: Mar 29, 2015 at 8:00:26 PM

Latest Report: Mar 29, 2015 at 6:51 PM


Visibility: 10 mi

Pressure: 29.94 "Hg

Humidity: 20%

Dew point: 33 °F

Location of Simi ValleyLocation

Historic Weather in Simi Valley — Graph

°F

Simi Valley temperature yesterday

Maximum temperature yesterday: 87 °F (at 1:51 PM)
Minimum temperature yesterday: 56 °F (at 5:51 AM)
Average temperature yesterday: 71 °F

Past Weeks' High & Low Weather Summary

 TemperatureHumidityPressure
High91 °F (Mar 26, 1:51 PM)93% (Mar 20, 5:51 AM)30.16 "Hg (Mar 20, 5:51 AM)
Low52 °F (Mar 23, 5:51 AM)11% (Mar 26, 1:51 PM)29.85 "Hg (Mar 16, 5:51 PM)
Average69 °F47%30.01 "Hg
* Reported Mar 14 5:51 PM — Mar 29 5:51 PM, Simi Valley, Weather by CustomWeather, © 2015

Note: Actual official high and low records may vary slightly from our data, if they occured in-between our weather recording intervals... More about our weather records

Advertising

Simi Valley weather history for previous 24 hours

 ConditionsComfort  
Time TempWeatherWind HumidityBarometerVisibility
5:51 PM
Sun, Mar 29
81 °FSunny.8 mph16%29.93 "Hg10 mi
4:51 PM84 °FSunny.12 mph12%29.93 "Hg10 mi
3:51 PM84 °FSunny.10 mph16%29.94 "Hg10 mi
2:51 PM84 °FSunny.9 mph17%29.96 "Hg10 mi
1:51 PM83 °FSunny.10 mph19%29.98 "Hg10 mi
12:51 PM84 °FSunny.N/A21%30.00 "Hg10 mi
11:51 AM81 °FSunny.6 mph24%30.02 "Hg10 mi
10:51 AM76 °FSunny.No wind31%30.03 "Hg10 mi
9:51 AM68 °FSunny.3 mph44%30.03 "Hg10 mi
8:51 AM62 °FSunny.No wind52%30.03 "Hg10 mi
7:51 AM59 °FSunny.No wind54%30.04 "Hg10 mi
6:51 AM54 °FClear.No wind64%30.03 "Hg10 mi
5:51 AM54 °FClear.No wind62%30.01 "Hg10 mi
4:51 AM56 °FClear.No wind62%30.00 "Hg10 mi
3:51 AM57 °FClear.No wind53%30.00 "Hg10 mi
2:51 AM58 °FClear.No wind56%30.00 "Hg10 mi
1:51 AM60 °FClear.No wind49%30.01 "Hg10 mi
12:51 AM63 °FClear.No wind45%30.02 "Hg10 mi
11:51 PM
Sat, Mar 28
65 °FClear.No wind42%30.03 "Hg10 mi
10:51 PM65 °FClear.No wind40%30.03 "Hg10 mi
9:51 PM70 °FClear.No wind31%30.01 "Hg10 mi
8:51 PM72 °FClear.No wind29%30.01 "Hg10 mi
Weather by CustomWeather, © 2015

See weather overviewHow to use our weather pages